User: anonymous   Login
Location: Unspecified
(0.0000°N, 0.0000°E)
Time: 17:25:47
(UTC+00:00)
Language:

Oscar 16 - Orbit

View from above orbital plane
View from above orbital plane
View from above satellite
View from above satellite

Ground track
Ground track

The orbit data is extracted from the following two-line orbital elements,

1 20439U 90005D   18115.83280537  .00000013  00000-0  21105-4 0  9991
2 20439  98.6444  58.6442 0010195 326.3129  57.6146 14.32718905476170
Epoch (UTC): 25 April 2018 19:59:14
Eccentricity: 0.0010195
inclination: 98.6444°
perigee height: 775 km
apogee height: 790 km
right ascension of ascending node: 58.6442°
argument of perigee: 326.3129°
revolutions per day: 14.32718905
mean anomaly at epoch: 57.6146°
orbit number at epoch: 47617

The dashed part of the orbit path shows where the satellite is in the earth's shadow,  

DLR